Overview Statistics Trail Chart Weather Telemetry Raw packets
 

This is the latest recevied weather packets stored in our database for station/object K1NOT-WX. If no packets are shown the sender has not sent any weather packets the latest 10 day(s).

<< 15 16 17 18 19 20 21 >>
Time Temp. Humidity Pressure Rain* Wind** Luminosity Snow
1777392733 8.89° C 95% 1013.5 hPa 0 mm - - -
1777391833 8.89° C 94% 1013.5 hPa 0 mm - - -
1777390933 8.89° C 94% 1012.9 hPa 0 mm - - -
1777390033 8.89° C 94% 1013.2 hPa 0 mm - - -
1777389133 8.89° C 94% 1013.2 hPa 0 mm - - -
1777388233 8.89° C 94% 1013.2 hPa 0 mm - - -
1777387333 8.89° C 94% 1012.9 hPa 0 mm - - -
1777386433 8.89° C 94% 1012.9 hPa 0 mm - - -
1777385533 8.89° C 95% 1012.5 hPa 0 mm - - -
1777384633 8.33° C 95% 1012.5 hPa 0 mm - - -
1777383733 8.33° C 95% 1011.8 hPa 0 mm - - -
1777382832 8.33° C 95% 1011.8 hPa 0 mm - - -
1777381932 8.33° C 95% 1011.5 hPa 0 mm - - -
1777381032 8.33° C 94% 1011.5 hPa 0 mm - - -
1777380132 8.33° C 94% 1011.8 hPa 0 mm - - -
1777379232 8.33° C 93% 1011.5 hPa 0 mm - - -
1777378332 8.89° C 91% 1011.5 hPa 0 mm - - -
1777377432 8.89° C 87% 1011.5 hPa 0 mm - - -
1777376532 9.44° C 85% 1011.5 hPa 0 mm - - -
1777375632 8.89° C 85% 1011.2 hPa 0 mm - - -
1777374732 8.89° C 84% 1011.2 hPa 0 mm - - -
1777373832 8.89° C 85% 1011.2 hPa 0 mm - - -
1777372932 8.89° C 86% 1011.2 hPa 0 mm - - -
1777372032 8.89° C 86% 1011.2 hPa 0 mm - - -
1777371132 8.33° C 88% 1010.8 hPa 0 mm - - -

* Rain latest hour (hover to see other rain measurements)
** Current wind speed in m/s (hover to see current wind gust speed)